FW8756 Weather Reports


Display with metric or nautical units.
time (UTC)temp
F
wind
direction
speed
MPH
gust
MPH
rain 1hr
in
rain 24hr
in
rain mn
in
humidity
%
barometer
mb
20260903165714 83 155 0.0 0.0 0.00 0.00 0.00 88 1014.1
20260903165209 82 334 3.0 3.0 0.00 0.00 0.00 88 1014.2
20260903164703 83 251 2.0 2.0 0.00 0.00 0.00 88 1014.1
20260903164159 82 153 0.0 0.0 0.00 0.00 0.00 88 1014.1
20260903163659 82 134 0.0 0.0 0.00 0.00 0.00 88 1013.9
20260903163156 83 58 0.0 0.0 0.00 0.00 0.00 88 1013.7
20260903162651 83 174 1.0 2.0 0.00 0.00 0.00 87 1013.7
20260903162147 84 151 0.0 0.0 0.00 0.00 0.00 87 1013.9
20260903161643 84 13 0.0 1.0 0.00 0.00 0.00 86 1013.6
20260903161138 84 137 0.0 1.0 0.00 0.00 0.00 86 1013.5
20260903160633 84 151 0.0 0.0 0.00 0.00 0.00 86 1014.0
20260903160127 84 151 0.0 0.0 0.00 0.00 0.00 87 1013.8
20260903155626 83 152 0.0 0.0 0.00 0.00 0.00 87 1013.7
20260903155121 83 130 0.0 0.0 0.00 0.00 0.00 87 1013.7
20260903154617 83 171 0.0 0.0 0.00 0.00 0.00 87 1013.6
20260903154113 83 152 0.0 0.0 0.00 0.00 0.00 88 1013.9
20260903153609 83 158 0.0 0.0 0.00 0.00 0.00 88 1013.7
20260903153104 83 148 0.0 0.0 0.00 0.00 0.00 88 1013.8
20260903152600 83 152 0.0 0.0 0.00 0.00 0.00 88 1013.9
20260903152056 82 137 0.0 0.0 0.00 0.00 0.00 88 1013.9
20260903151555 82 152 0.0 0.0 0.00 0.00 0.00 88 1014.0
20260903151050 82 124 0.0 0.0 0.00 0.00 0.00 89 1013.9
20260903150544 82 154 0.0 0.0 0.00 0.00 0.00 89 1014.0
20260903150040 82 128 0.0 0.0 0.00 0.00 0.00 89 1014.0
20260903145539 81 146 0.0 0.0 0.00 0.00 0.00 90 1014.1
20260903145035 81 150 0.0 0.0 0.00 0.00 0.00 90 1014.1
20260903144534 81 159 0.0 0.0 0.00 0.00 0.00 91 1014.3
20260903144030 81 148 0.0 1.0 0.00 0.00 0.00 92 1014.4
20260903143526 81 126 0.0 0.0 0.00 0.00 0.00 92 1014.5
20260903143022 82 137 0.0 0.0 0.00 0.00 0.00 92 1014.2
20260903142517 81 152 0.0 0.0 0.00 0.00 0.00 92 1014.3
20260903142014 81 147 0.0 0.0 0.00 0.00 0.00 93 1014.1
20260903141509 81 117 0.0 0.0 0.00 0.00 0.00 93 1014.3
20260903141004 81 157 0.0 0.0 0.00 0.00 0.00 93 1014.3
20260903140500 81 173 0.0 0.0 0.00 0.00 0.00 93 1014.3
20260903140000 81 162 0.0 0.0 0.00 0.00 0.00 93 1014.2
20260903135456 81 150 0.0 0.0 0.00 0.00 0.00 93 1014.1
20260903134950 80 140 0.0 0.0 0.00 0.00 0.00 93 1014.0
20260903134449 80 69 0.0 0.0 0.00 0.00 0.00 93 1014.0
20260903133946 80 151 0.0 0.0 0.00 0.00 0.00 94 1013.9
20260903133443 80 151 0.0 0.0 0.00 0.00 0.00 94 1013.9
20260903132938 80 149 0.0 0.0 0.00 0.00 0.00 94 1013.9
20260903132434 80 138 0.0 0.0 0.00 0.00 0.00 94 1014.1
20260903131933 80 162 0.0 0.0 0.00 0.00 0.00 94 1014.0
20260903131428 80 153 0.0 0.0 0.00 0.00 0.00 94 1013.9
20260903130927 80 86 0.0 0.0 0.00 0.00 0.00 94 1013.8
20260903130423 79 145 0.0 0.0 0.00 0.00 0.00 94 1013.6
20260903125922 79 134 0.0 0.0 0.00 0.00 0.00 94 1013.6
20260903125421 79 145 0.0 1.0 0.00 0.00 0.00 94 1013.7
20260903124921 79 127 0.0 0.0 0.00 0.00 0.00 94 1013.6
20260903124416 79 130 0.0 1.0 0.00 0.00 0.00 94 1013.7
20260903123915 79 136 0.0 0.0 0.00 0.00 0.00 94 1013.8
20260903123410 79 148 0.0 1.0 0.00 0.00 0.00 94 1013.6
20260903122909 79 153 0.0 0.0 0.00 0.00 0.00 94 1013.3
20260903122403 79 51 0.0 0.0 0.00 0.00 0.00 94 1013.1
20260903121902 79 47 0.0 0.0 0.00 0.00 0.00 94 1013.0
20260903121357 79 49 0.0 0.0 0.00 0.00 0.00 94 1012.9
20260903120854 79 50 0.0 0.0 0.00 0.00 0.00 94 1013.0
20260903120352 79 48 0.0 1.0 0.00 0.00 0.00 94 1012.7
20260903115851 79 49 0.0 0.0 0.00 0.00 0.00 94 1012.7
20260903115345 79 48 0.0 0.0 0.00 0.00 0.00 94 1012.8
20260903114840 79 49 0.0 0.0 0.00 0.00 0.00 94 1012.7
20260903114336 79 49 0.0 0.0 0.00 0.00 0.00 94 1012.9
20260903113831 79 49 0.0 0.0 0.00 0.00 0.00 94 1012.8
20260903113326 79 50 0.0 0.0 0.00 0.00 0.00 94 1012.7
20260903112823 79 50 0.0 0.0 0.00 0.00 0.00 94 1012.8
20260903112318 79 53 1.0 1.0 0.00 0.00 0.00 94 1012.8
20260903111817 79 47 0.0 0.0 0.00 0.00 0.00 94 1012.8
20260903111311 79 46 0.0 0.0 0.00 0.00 0.00 94 1012.7
20260903110808 79 49 0.0 0.0 0.00 0.00 0.00 94 1012.7
20260903110304 79 50 0.0 0.0 0.00 0.00 0.00 94 1012.5
20260903105803 79 49 0.0 0.0 0.00 0.00 0.00 94 1012.6
20260903105258 79 50 0.0 0.0 0.00 0.00 0.00 94 1012.6
20260903104757 79 51 0.0 0.0 0.00 0.00 0.00 94 1012.5
20260903104253 79 56 0.0 0.0 0.00 0.00 0.00 94 1012.5
20260903103749 79 143 0.0 0.0 0.00 0.00 0.00 94 1012.6
20260903103245 79 147 0.0 0.0 0.00 0.00 0.00 94 1012.5
20260903102740 79 160 0.0 0.0 0.00 0.00 0.00 94 1012.6
20260903102240 79 145 0.0 0.0 0.00 0.00 0.00 94 1012.2
20260903101738 79 98 0.0 0.0 0.00 0.00 0.00 94 1012.2
20260903101235 79 135 0.0 0.0 0.00 0.00 0.00 94 1012.1
20260903100730 79 147 0.0 0.0 0.00 0.00 0.00 94 1012.2
20260903100229 79 159 0.0 0.0 0.00 0.00 0.00 93 1012.3
20260903095727 79 157 0.0 0.0 0.00 0.00 0.00 93 1012.5
20260903095222 79 148 0.0 0.0 0.00 0.00 0.00 93 1012.3
20260903094717 79 144 0.0 0.0 0.00 0.00 0.00 93 1012.3
20260903094212 79 140 0.0 0.0 0.00 0.00 0.00 93 1012.5
20260903093708 79 148 0.0 0.0 0.00 0.00 0.00 93 1012.1
20260903093203 79 152 0.0 0.0 0.00 0.00 0.00 93 1012.1
20260903092702 79 150 0.0 0.0 0.00 0.00 0.00 93 1012.2
20260903092157 79 150 0.0 0.0 0.00 0.00 0.00 93 1012.3
20260903091656 79 153 0.0 0.0 0.00 0.00 0.00 93 1012.1
20260903091150 78 153 0.0 0.0 0.00 0.00 0.00 93 1012.2
20260903090646 79 144 0.0 0.0 0.00 0.00 0.00 93 1012.5
20260903090144 78 151 0.0 0.0 0.00 0.00 0.00 93 1012.2
20260903085643 79 134 0.0 0.0 0.00 0.00 0.00 93 1012.5
20260903085140 79 150 0.0 0.0 0.00 0.00 0.00 93 1012.2
20260903084636 79 156 0.0 0.0 0.00 0.00 0.00 93 1012.2
20260903084131 79 151 0.0 0.0 0.00 0.00 0.00 93 1012.3
20260903083627 79 151 0.0 0.0 0.00 0.00 0.00 93 1012.1
20260903083121 79 151 0.0 0.0 0.00 0.00 0.00 93 1012.0
20260903082616 79 150 0.0 0.0 0.00 0.00 0.00 93 1012.0
20260903082112 79 151 0.0 0.0 0.00 0.00 0.00 93 1012.1
20260903081607 79 150 0.0 0.0 0.00 0.00 0.00 93 1012.0
20260903081102 79 131 0.0 0.0 0.00 0.00 0.00 93 1012.1
20260903080558 79 159 0.0 0.0 0.00 0.00 0.00 93 1012.0
20260903080055 79 157 0.0 0.0 0.00 0.00 0.00 93 1012.1
20260903075549 79 117 0.0 1.0 0.00 0.00 0.00 93 1011.7
20260903075045 79 160 1.0 1.0 0.00 0.00 0.00 92 1012.0
20260903074544 79 152 0.0 0.0 0.00 0.00 0.00 92 1012.0
20260903074039 79 155 0.0 0.0 0.00 0.00 0.00 92 1011.7
20260903073534 78 181 1.0 1.0 0.00 0.00 0.00 92 1011.8
20260903073030 78 142 0.0 0.0 0.00 0.00 0.00 92 1011.7
20260903072526 78 157 0.0 0.0 0.00 0.00 0.00 92 1011.9
20260903072022 78 158 0.0 0.0 0.00 0.00 0.00 92 1012.0
20260903071518 78 176 3.0 3.0 0.00 0.00 0.00 92 1011.7
20260903071019 78 165 0.0 1.0 0.00 0.00 0.00 92 1011.9
20260903070518 78 158 0.0 0.0 0.00 0.00 0.00 92 1011.9
20260903070015 78 148 0.0 0.0 0.00 0.00 0.00 92 1012.1
20260903065508 78 160 0.0 0.0 0.00 0.00 0.00 92 1011.9
20260903065008 78 133 1.0 1.0 0.00 0.00 0.00 92 1012.0
20260903064502 78 187 0.0 1.0 0.00 0.00 0.00 92 1011.8
20260903063958 78 155 0.0 1.0 0.00 0.00 0.00 92 1012.0
20260903063453 78 174 3.0 3.0 0.00 0.00 0.00 92 1012.3
20260903062948 78 162 0.0 1.0 0.00 0.00 0.00 92 1012.2
20260903062448 77 185 0.0 1.0 0.00 0.00 0.00 92 1012.1
20260903061944 77 162 1.0 2.0 0.00 0.00 0.00 92 1012.2
20260903061444 77 148 2.0 3.0 0.00 0.00 0.00 92 1012.1
20260903060940 77 157 0.0 0.0 0.00 0.00 0.00 92 1012.2
20260903060434 76 173 1.0 2.0 0.00 0.00 0.00 92 1012.1
20260903055932 76 139 3.0 5.0 0.00 0.00 0.00 93 1012.5
20260903055430 77 155 2.0 2.0 0.00 0.00 0.00 93 1012.3
20260903054925 77 161 0.0 0.0 0.00 0.00 0.00 93 1012.6
20260903054419 77 138 3.0 3.0 0.00 0.00 0.00 93 1012.2
20260903053915 78 139 1.0 2.0 0.00 0.00 0.00 93 1012.2
20260903053410 78 154 0.0 1.0 0.00 0.00 0.00 93 1012.7
20260903052907 78 148 2.0 3.0 0.00 0.00 0.00 93 1012.7
20260903052402 78 143 2.0 2.0 0.00 0.00 0.00 93 1013.0
20260903051858 78 159 0.0 0.0 0.00 0.00 0.00 93 1013.1
20260903051353 78 155 2.0 2.0 0.00 0.00 0.00 93 1013.1
20260903050848 78 137 1.0 1.0 0.00 0.00 0.00 93 1013.3
20260903050347 78 153 0.0 0.0 0.00 0.00 0.00 93 1013.5
20260903045842 78 159 0.0 0.0 0.00 0.00 0.00 93 1013.2
20260903045338 78 170 1.0 1.0 0.00 0.00 0.00 92 1013.4
20260903044834 78 248 0.0 1.0 0.00 0.00 0.00 93 1013.5
20260903044329 78 168 0.0 0.0 0.00 0.00 0.00 93 1013.3
20260903043825 78 153 0.0 0.0 0.00 0.00 0.00 93 1013.5
20260903043320 78 166 0.0 0.0 0.00 0.00 0.00 93 1013.6
20260903042819 78 149 0.0 0.0 0.00 0.00 0.00 92 1013.6
20260903042314 78 141 0.0 0.0 0.00 0.00 0.00 92 1013.6
20260903041810 78 167 0.0 0.0 0.00 0.00 0.00 92 1013.6
20260903041307 78 141 0.0 0.0 0.00 0.00 0.00 92 1013.8
20260903040807 78 139 0.0 0.0 0.00 0.00 0.00 92 1013.9
20260903040306 78 149 0.0 0.0 0.00 0.00 0.00 92 1013.9
20260903035802 78 215 0.0 1.0 0.00 0.00 0.00 92 1013.8
20260903035257 78 147 0.0 0.0 0.00 0.00 0.00 92 1013.5
20260903034753 78 148 0.0 0.0 0.00 0.00 0.00 92 1013.4
20260903034248 78 133 0.0 0.0 0.00 0.00 0.00 92 1013.3
20260903033743 78 142 0.0 0.0 0.00 0.00 0.00 92 1013.3
20260903033238 78 119 0.0 1.0 0.00 0.00 0.00 92 1013.0
20260903032732 78 140 4.0 5.0 0.00 0.00 0.00 92 1013.1
20260903032228 78 152 0.0 1.0 0.00 0.00 0.00 92 1012.8
20260903031724 78 143 0.0 0.0 0.00 0.00 0.00 92 1012.8
20260903031223 78 140 0.0 0.0 0.00 0.00 0.00 92 1012.6
20260903030719 78 142 0.0 0.0 0.00 0.00 0.00 92 1013.0
20260903030215 78 144 0.0 0.0 0.00 0.00 0.00 92 1012.7
20260903025710 78 137 0.0 0.0 0.00 0.00 0.00 92 1012.8
20260903025205 78 131 0.0 0.0 0.00 0.00 0.00 92 1012.7
20260903024700 78 116 0.0 1.0 0.00 0.00 0.00 92 1012.8
20260903024158 78 154 0.0 0.0 0.00 0.00 0.00 92 1012.6
20260903023655 78 138 0.0 0.0 0.00 0.00 0.00 92 1012.5
20260903023150 78 177 0.0 0.0 0.00 0.00 0.00 92 1012.6
20260903022649 78 141 0.0 0.0 0.00 0.00 0.00 92 1012.3
20260903022144 78 134 0.0 0.0 0.00 0.00 0.00 92 1012.1
20260903021644 78 147 0.0 0.0 0.00 0.00 0.00 92 1011.9
20260903021138 78 163 0.0 1.0 0.00 0.00 0.00 92 1011.9
20260903020634 78 133 0.0 1.0 0.00 0.00 0.00 91 1011.9
20260903020134 78 147 1.0 1.0 0.00 0.00 0.00 91 1012.0
20260903015629 78 153 0.0 0.0 0.00 0.00 0.00 91 1012.1
20260903015124 78 142 1.0 1.0 0.00 0.00 0.00 91 1012.0
20260903014619 78 148 1.0 2.0 0.00 0.00 0.00 91 1012.1
20260903014118 78 111 0.0 1.0 0.00 0.00 0.00 91 1012.3
20260903013613 77 134 0.0 0.0 0.00 0.00 0.00 91 1012.6
20260903013107 77 152 1.0 1.0 0.00 0.00 0.00 91 1012.1
20260903012607 77 154 0.0 0.0 0.00 0.00 0.00 91 1011.7
20260903012106 77 190 4.0 6.0 0.00 0.00 0.00 91 1011.8
20260903011606 78 151 1.0 1.0 0.00 0.00 0.00 91 1011.7
20260903011105 78 29 1.0 1.0 0.00 0.00 0.00 91 1011.8
20260903010601 78 134 1.0 1.0 0.00 0.00 0.00 92 1011.7
20260903010059 78 157 0.0 1.0 0.00 0.00 0.00 92 1011.8
20260903005554 78 140 0.0 1.0 0.00 0.00 0.00 92 1011.5
20260903005050 78 136 0.0 0.0 0.00 0.00 0.00 91 1011.5
20260903004544 78 98 4.0 5.0 0.00 0.00 0.00 91 1010.9
20260903004040 78 122 0.0 0.0 0.00 0.00 0.00 91 1010.6
20260903003535 78 126 0.0 0.0 0.00 0.00 0.00 91 1010.6
20260903003030 79 118 5.0 6.0 0.00 0.00 0.00 91 1010.8
20260903002531 79 64 5.0 7.0 0.00 0.00 0.00 91 1011.2
20260903002025 80 70 3.0 5.0 0.00 0.00 0.00 90 1011.5
20260903001520 80 151 1.0 2.0 0.00 0.00 0.00 90 1011.4
20260903001019 80 128 2.0 2.0 0.00 0.00 0.00 89 1011.2
20260903000515 80 168 0.0 1.0 0.00 0.00 0.00 88 1011.0
20260903000014 81 99 1.0 2.0 0.00 0.00 0.00 87 1010.7
20260902235508 81 166 0.0 0.0 0.00 0.00 0.00 86 1011.2
20260902235003 81 162 0.0 0.0 0.00 0.00 0.00 86 1011.2
20260902234457 81 105 2.0 2.0 0.00 0.00 0.00 86 1011.2
20260902233956 81 37 4.0 6.0 0.00 0.00 0.00 86 1010.9
20260902233456 81 119 3.0 5.0 0.00 0.00 0.00 85 1011.0
20260902232950 81 168 0.0 1.0 0.00 0.00 0.00 85 1010.8
20260902232445 81 7 0.0 1.0 0.00 0.00 0.00 85 1010.6
20260902231944 82 163 0.0 1.0 0.00 0.00 0.00 85 1010.9
20260902231439 82 156 0.0 1.0 0.00 0.00 0.00 84 1011.2
20260902230934 83 186 0.0 0.0 0.00 0.00 0.00 83 1011.2
20260902230434 83 145 0.0 0.0 0.00 0.00 0.00 82 1011.3
20260902225928 83 162 0.0 0.0 0.00 0.00 0.00 82 1011.1
20260902225423 83 121 0.0 1.0 0.00 0.00 0.00 83 1011.0
20260902224922 83 160 2.0 5.0 0.00 0.00 0.00 82 1010.9
20260902224422 83 150 1.0 1.0 0.00 0.00 0.00 81 1010.5
20260902223919 82 208 2.0 5.0 0.00 0.00 0.00 82 1010.7
20260902223418 82 148 0.0 0.0 0.00 0.00 0.00 82 1010.6
20260902222913 82 251 3.0 5.0 0.00 0.00 0.00 82 1010.6
20260902222411 83 221 2.0 2.0 0.00 0.00 0.00 82 1010.9
20260902221911 83 158 1.0 2.0 0.00 0.00 0.00 81 1010.6
20260902221410 84 355 3.0 6.0 0.00 0.00 0.00 79 1010.4
20260902220906 85 269 2.0 2.0 0.00 0.00 0.00 77 1010.4
20260902220405 86 202 3.0 3.0 0.00 0.00 0.00 75 1010.6
20260902215901 88 78 0.0 1.0 0.00 0.00 0.00 73 1010.5
20260902215356 89 179 2.0 5.0 0.00 0.00 0.00 69 1010.4
20260902214853 89 158 1.0 2.0 0.00 0.00 0.00 69 1010.3
20260902214351 88 88 0.0 1.0 0.00 0.00 0.00 70 1010.2
20260902213846 89 169 0.0 1.0 0.00 0.00 0.00 70 1010.0
20260902213342 89 167 0.0 0.0 0.00 0.00 0.00 70 1010.0
20260902212840 89 181 0.0 0.0 0.00 0.00 0.00 70 1009.8
20260902212337 89 157 0.0 0.0 0.00 0.00 0.00 70 1010.1
20260902211833 89 189 0.0 0.0 0.00 0.00 0.00 70 1010.1
20260902211328 90 142 2.0 3.0 0.00 0.00 0.00 69 1010.0
20260902210823 91 168 0.0 0.0 0.00 0.00 0.00 69 1010.2
20260902210323 91 148 2.0 2.0 0.00 0.00 0.00 68 1010.1
20260902205821 92 178 2.0 2.0 0.00 0.00 0.00 67 1010.2
20260902205316 93 193 2.0 3.0 0.00 0.00 0.00 65 1010.2
20260902204812 93 208 3.0 3.0 0.00 0.00 0.00 64 1010.4
20260902204307 93 163 2.0 3.0 0.00 0.00 0.00 64 1010.3
20260902203802 93 259 3.0 3.0 0.00 0.00 0.00 63 1010.3
20260902203257 93 195 3.0 3.0 0.00 0.00 0.00 62 1010.4
20260902202751 93 194 1.0 1.0 0.00 0.00 0.00 62 1010.1
20260902202248 94 262 2.0 3.0 0.00 0.00 0.00 61 1010.4
20260902201744 94 227 4.0 7.0 0.00 0.00 0.00 60 1010.2
20260902201244 95 193 2.0 2.0 0.00 0.00 0.00 59 1010.5
20260902200739 96 132 2.0 2.0 0.00 0.00 0.00 59 1010.5
20260902200234 95 157 1.0 1.0 0.00 0.00 0.00 59 1010.5
20260902195730 96 151 3.0 5.0 0.00 0.00 0.00 57 1010.3
20260902195229 96 182 3.0 5.0 0.00 0.00 0.00 58 1010.4
20260902194729 96 183 2.0 2.0 0.00 0.00 0.00 59 1010.3
20260902194224 96 219 5.0 7.0 0.00 0.00 0.00 57 1010.6
20260902193719 97 210 2.0 2.0 0.00 0.00 0.00 57 1010.8
20260902193215 96 254 2.0 3.0 0.00 0.00 0.00 56 1011.0
20260902192713 96 171 3.0 5.0 0.00 0.00 0.00 57 1011.0
20260902192213 96 153 2.0 2.0 0.00 0.00 0.00 60 1010.7
20260902191712 97 163 1.0 1.0 0.00 0.00 0.00 59 1011.1
20260902191207 96 273 4.0 6.0 0.00 0.00 0.00 59 1011.1
20260902190703 96 160 1.0 3.0 0.00 0.00 0.00 60 1011.3
20260902190157 96 132 0.0 0.0 0.00 0.00 0.00 60 1011.5
20260902185653 95 168 0.0 0.0 0.00 0.00 0.00 64 1011.3
20260902185149 95 254 4.0 5.0 0.00 0.00 0.00 62 1011.6
20260902184649 94 180 0.0 0.0 0.00 0.00 0.00 65 1011.7
20260902184145 92 165 2.0 2.0 0.00 0.00 0.00 67 1011.8
20260902183641 92 144 0.0 0.0 0.00 0.00 0.00 68 1011.8
20260902183137 93 194 2.0 2.0 0.00 0.00 0.00 68 1011.8
20260902182633 94 175 2.0 2.0 0.00 0.00 0.00 66 1012.2
20260902182129 93 149 0.0 0.0 0.00 0.00 0.00 67 1012.0
20260902181625 93 184 0.0 1.0 0.00 0.00 0.00 67 1012.3
20260902181124 91 261 4.0 5.0 0.00 0.00 0.00 68 1012.7
20260902180619 91 211 1.0 2.0 0.00 0.00 0.00 69 1012.5
20260902180116 91 193 3.0 5.0 0.00 0.00 0.00 68 1012.6
20260902175614 91 206 3.0 3.0 0.00 0.00 0.00 69 1012.8
20260902175110 90 219 1.0 2.0 0.00 0.00 0.00 70 1013.0
20260902174606 90 173 1.0 2.0 0.00 0.00 0.00 70 1012.9
20260902174102 90 257 5.0 6.0 0.00 0.00 0.00 71 1013.3
20260902173602 91 155 1.0 1.0 0.00 0.00 0.00 70 1013.4
20260902173057 91 279 2.0 5.0 0.00 0.00 0.00 70 1013.7
20260902172551 89 209 3.0 3.0 0.00 0.00 0.00 72 1013.5
20260902172046 88 270 5.0 8.0 0.00 0.00 0.00 72 1013.4
20260902171541 88 256 5.0 8.0 0.00 0.00 0.00 72 1013.5
20260902171037 88 220 2.0 2.0 0.00 0.00 0.00 73 1013.6
20260902170532 88 219 5.0 7.0 0.00 0.00 0.00 73 1013.9
20260902170028 88 234 4.0 5.0 0.00 0.00 0.00 73 1014.0